Location: Bolzano
(46.5170°N, 11.3670°E)
Time: 23:56:01
(UTC+01:00)

ISS - Pass Details

Date: 02 December 2021
Orbit: 413 x 422 km, 51.6° (Epoch: 24 January)

Event Time Altitude Azimuth Distance (km) Brightness Sun altitude
Rises 17:48:43 0° 293° (WNW) 2,383 0.9 -13.3°
Reaches altitude 10° 17:50:54 10° 301° (WNW) 1,515 -0.3 -13.6°
Maximum altitude 17:54:10 42° 14° (NNE) 620 -3.2 -14.2°
Enters shadow 17:55:22 29° 63° (ENE) 804 -2.9 -14.4°
